This is the latest recevied weather packets stored in our database for station/object KY4LEX. If no packets are shown the sender has not sent any weather packets the latest 10 day(s).
| Time | Temp. | Humidity | Pressure | Rain* | Wind** | Luminosity | Snow |
|---|---|---|---|---|---|---|---|
| 1777923034 | 25.56° C | 42% | 1015.7 hPa | 0 mm | - | 607 W/m² | - |
| 1777922732 | 25.56° C | 43% | 1015.7 hPa | 0 mm | - | 627 W/m² | - |
| 1777922429 | 25.56° C | 43% | 1015.8 hPa | 0 mm | - | 672 W/m² | - |
| 1777922127 | 25.56° C | 44% | 1016 hPa | 0 mm | - | 484 W/m² | - |
| 1777921823 | 25° C | 47% | 1015.9 hPa | 0 mm | - | 666 W/m² | - |
| 1777921519 | 25° C | 47% | 1015.6 hPa | 0 mm | - | 464 W/m² | - |
| 1777921215 | 24.44° C | 47% | 1015.8 hPa | 0 mm | - | 584 W/m² | - |
| 1777920913 | 24.44° C | 45% | 1015.8 hPa | 0 mm | - | 488 W/m² | - |
| 1777920609 | 25° C | 47% | 1016 hPa | 0 mm | - | 467 W/m² | - |
| 1777920310 | 25° C | 45% | 1015.8 hPa | 0 mm | - | 374 W/m² | - |
| 1777920005 | 25° C | 50% | 1015.9 hPa | 0 mm | - | 619 W/m² | - |
| 1777919703 | 25° C | 47% | 1015.8 hPa | 0 mm | - | 704 W/m² | - |
| 1777919401 | 25° C | 46% | 1015.8 hPa | 0 mm | - | 710 W/m² | - |
| 1777919097 | 24.44° C | 45% | 1016 hPa | 0 mm | - | 668 W/m² | - |
| 1777918795 | 24.44° C | 48% | 1015.6 hPa | 0 mm | - | 654 W/m² | - |
| 1777918491 | 25° C | 45% | 1015.8 hPa | 0 mm | - | 704 W/m² | - |
| 1777918190 | 23.89° C | 48% | 1015.7 hPa | 0 mm | - | 705 W/m² | - |
| 1777917889 | 23.89° C | 48% | 1015.8 hPa | 0 mm | - | 707 W/m² | - |
| 1777917587 | 23.33° C | 51% | 1015.9 hPa | 0 mm | - | 708 W/m² | - |
| 1777917284 | 23.33° C | 48% | 1015.8 hPa | 0 mm | - | 709 W/m² | - |
| 1777916981 | 23.33° C | 51% | 1015.7 hPa | 0 mm | - | 714 W/m² | - |
| 1777916678 | 23.89° C | 48% | 1015.7 hPa | 0 mm | - | 690 W/m² | - |
| 1777916376 | 23.89° C | 49% | 1015.8 hPa | 0 mm | - | 713 W/m² | - |
| 1777916072 | 23.33° C | 48% | 1015.8 hPa | 0 mm | - | 714 W/m² | - |
| 1777915770 | 23.89° C | 50% | 1015.7 hPa | 0 mm | - | 713 W/m² | - |
* Rain latest hour (hover to see other rain measurements)
** Current wind speed in m/s (hover to see current wind gust speed)